New Iberia, LA

1:42 PM CST on January 23, 2017 (GMT -0600)
Acadiana Regional

Weather History for KARA - December, 2012

Change the Weather History Date:

Saturday, December 1, 2012

  Actual Average Record
Temperature  
Mean Temperature 67 °F 57 °F  
Max Temperature 80 °F 67 °F 81 °F (1998)
Min Temperature 54 °F 46 °F 28 °F (1979)
Degree Days  
Heating Degree Days 0 9  
Month to date heating degree days 0 9  
Since 1 July heating degree days 201 204  
Cooling Degree Days 2 1  
Month to date cooling degree days 2 1  
Year to date cooling degree days 3245 2793  
Growing Degree Days 16 (Base 50)    
Moisture  
Dew Point 59 °F    
Average Humidity 74    
Maximum Humidity 93    
Minimum Humidity 54    
Precipitation  
Precipitation 0.00 in 0.19 in 1.30 in (1982)
Month to date precipitation 0.00 0.19  
Year to date precipitation 49.00 54.88  
Sea Level Pressure  
Sea Level Pressure 30.20 in    
Wind  
Wind Speed 6 mph (ESE)    
Max Wind Speed 12 mph    
Max Gust Speed 15 mph    
Visibility 9 miles    
Events      
T = Trace of Precipitation, MM = Missing Value Source: NWS Daily Summary

Daily Weather History Graph

Daily Weather History Graph

Search for Another Location

Airport or City:

Trip Planner

Search our weather history database for the weather conditions in past years. The results will help you decide how hot, cold, wet, or windy it might be!

Date:

Astronomy

Dec. 01, 2012 Rise Set
Actual Time 6:46 AM CST 5:07 PM CST
Civil Twilight 6:20 AM CST 5:33 PM CST
Nautical Twilight 5:50 AM CST 6:02 PM CST
Astronomical Twilight 5:21 AM CST 6:31 PM CST
Moon 7:53 PM CST (12/1) 9:01 AM CST (12/1)
Length of Visible Light 11h 12m
Length of Day
10h 20m
Waning Gibbous, 91% of the Moon is Illuminated
Dec 1
Waning Gibbous
Dec 6
Last Quarter
Dec 13
New
Dec 19
First Quarter
Dec 28
Full

Hourly Weather History & Observations

Time (CST) Temp. Dew Point Humidity Pressure Visibility Wind Dir Wind Speed Gust Speed Precip Events Conditions
1:53 AM 55.9 °F 53.1 °F 90% 30.20 in 6.0 mi Calm Calm - N/A   Partly Cloudy
3:53 AM 60.1 °F 57.0 °F 90% 30.19 in 10.0 mi Calm Calm - N/A   Overcast
4:53 AM 59.0 °F 55.0 °F 87% 30.20 in 7.0 mi North 3.5 mph - N/A   Overcast
5:53 AM 60.1 °F 55.9 °F 86% 30.21 in 9.0 mi Calm Calm - N/A   Overcast
6:49 AM 59.0 °F 55.4 °F 88% 30.22 in 9.0 mi ENE 3.5 mph - N/A   Overcast
7:25 AM 60.8 °F 55.4 °F 82% 30.23 in 8.0 mi East 3.5 mph - N/A   Overcast
7:50 AM 60.8 °F 55.4 °F 82% 30.23 in 8.0 mi ENE 3.5 mph - N/A   Overcast
7:53 AM 61.0 °F 55.9 °F 83% 30.23 in 8.0 mi East 3.5 mph - N/A   Overcast
8:27 AM 62.6 °F 57.2 °F 82% 30.24 in 9.0 mi East 4.6 mph - N/A   Overcast
8:45 AM 62.6 °F 57.2 °F 82% 30.24 in 10.0 mi East 4.6 mph - N/A   Overcast
8:53 AM 64.0 °F 57.9 °F 80% 30.24 in 10.0 mi East 3.5 mph - N/A   Overcast
9:09 AM 64.4 °F 57.2 °F 77% 30.24 in 10.0 mi ESE 8.1 mph - N/A   Overcast
9:53 AM 68.0 °F 57.9 °F 70% 30.25 in 10.0 mi ESE 6.9 mph - N/A   Overcast
10:53 AM 75.0 °F 61.0 °F 62% 30.23 in 10.0 mi East 6.9 mph - N/A   Overcast
11:53 AM 77.0 °F 62.1 °F 60% 30.21 in 10.0 mi SE 6.9 mph - N/A   Partly Cloudy
12:53 PM 78.1 °F 61.0 °F 56% 30.18 in 10.0 mi Variable 3.5 mph - N/A   Scattered Clouds
1:53 PM 78.1 °F 60.1 °F 54% 30.16 in 10.0 mi SE 4.6 mph - N/A   Scattered Clouds
2:53 PM 78.1 °F 61.0 °F 56% 30.16 in 10.0 mi SSW 10.4 mph - N/A   Scattered Clouds
3:53 PM 75.9 °F 62.1 °F 62% 30.16 in 10.0 mi South 9.2 mph - N/A   Clear
4:53 PM 72.0 °F 63.0 °F 73% 30.17 in 10.0 mi South 6.9 mph - N/A   Clear
5:53 PM 66.9 °F 62.1 °F 84% 30.18 in 10.0 mi SSE 6.9 mph - N/A   Clear
6:53 PM 64.9 °F 62.1 °F 90% 30.18 in 4.0 mi SSE 6.9 mph - N/A   Clear
7:53 PM 64.0 °F 61.0 °F 90% 30.18 in 10.0 mi SE 6.9 mph - N/A   Clear
8:53 PM 66.0 °F 63.0 °F 90% 30.19 in 10.0 mi SE 9.2 mph - N/A   Clear
9:53 PM 64.0 °F 61.0 °F 90% 30.19 in 6.0 mi SE 6.9 mph - N/A   Clear
10:53 PM 63.0 °F 61.0 °F 93% 30.19 in 5.0 mi SE 6.9 mph - N/A   Clear
11:53 PM 60.1 °F 57.9 °F 93% 30.19 in 3.0 mi SE 6.9 mph - N/A   Clear